Location: Gunung Kajang
(2.4167°N, 113.7167°E)
Time: 05:13:42
(UTC+00:00)

Stardust Del rocket - Pass Details

Date: 29 May 2022
Orbit: 285 x 4042 km, 22.5° (Epoch: 23 June)

Event Time Altitude Azimuth Distance (km) Brightness Sun altitude
Exits shadow 20:28:33 77° 173° (S) 718 3.7 -25.3°
Drops below altitude 10° 20:35:38 10° 116° (ESE) 3,253 7.7 -23.7°
Sets 20:39:58 0° 115° (ESE) 4,901 8.7 -22.7°
